Location: Ferintosh
(52.7647°N, 112.9692°W)
Time: 15:24:39
(UTC+00:00)

S-56A Canister/Altair - Pass Details

Date: 26 May 2024
Orbit: 637 x 2489 km, 38.9° (Epoch: 20 June)

Event Time Altitude Azimuth Distance (km) Brightness Sun altitude
Rises 10:41:43 0° 194° (SSW) 6,142 11.6 -5.0°
Reaches altitude 10° 10:47:44 10° 179° (S) 5,033 11.3 -4.4°
Maximum altitude 10:55:50 18° 144° (SE) 4,107 11.2 -3.5°
Drops below altitude 10° 11:02:54 10° 107° (ESE) 4,333 11.8 -2.7°
Sets 11:07:26 0° 90° (E) 5,005 12.6 -2.2°
